Owatonna, MN

4:12 AM CDT on May 22, 2018 (GMT -0500)
Owatonna Degner Regional

Weather History for KOWA - July, 2013

Change the Weather History Date:

Saturday, July 27, 2013

  Actual Average Record
Temperature  
Mean Temperature 57 °F -  
Max Temperature 64 °F 83 °F 93 °F (1987)
Min Temperature 50 °F 61 °F 6 °F (1999)
Degree Days  
Heating Degree Days 8    
Growing Degree Days 7 (Base 50)    
Moisture  
Dew Point 49 °F    
Average Humidity 74    
Maximum Humidity 94    
Minimum Humidity 52    
Precipitation  
Precipitation 0.00 in - - ()
Sea Level Pressure  
Sea Level Pressure 30.03 in    
Wind  
Wind Speed 7 mph (NW)    
Max Wind Speed 22 mph    
Max Gust Speed 32 mph    
Visibility 10 miles    
Events Rain    
Averages and records for this station are not official NWS values.
T = Trace of Precipitation, MM = Missing Value Source: NWS Daily Summary

Daily Weather History Graph

Daily Weather History Graph

Search for Another Location

Airport or City:

Astronomy

Jul. 27, 2013 Rise Set
Actual Time 5:55 AM CDT 8:42 PM CDT
Civil Twilight 5:22 AM CDT 9:16 PM CDT
Nautical Twilight 4:39 AM CDT 9:58 PM CDT
Astronomical Twilight 3:50 AM CDT 10:47 PM CDT
Moon 11:14 PM CDT (7/27) 11:51 AM CDT (7/27)
Length of Visible Light 15h 54m
Length of Day
14h 46m
Waning Gibbous, 70% of the Moon is Illuminated
Jul 27
Waning Gibbous
Jul 29
Last Quarter
Aug 6
New
Aug 14
First Quarter
Aug 20
Full

Hourly Weather History & Observations

Time (CDT) Temp. Dew Point Humidity Pressure Visibility Wind Dir Wind Speed Gust Speed Precip Events Conditions
12:14 AM 57.2 °F 51.8 °F 82% 30.08 in 10.0 mi North 5.8 mph - N/A   Overcast
12:34 AM 57.2 °F 51.8 °F 82% 30.07 in 10.0 mi North 6.9 mph - N/A   Mostly Cloudy
12:54 AM 57.2 °F 50.0 °F 77% 30.07 in 10.0 mi North 8.1 mph - N/A   Mostly Cloudy
1:14 AM 55.4 °F 48.2 °F 77% 30.07 in 10.0 mi North 6.9 mph - N/A   Scattered Clouds
1:34 AM 55.4 °F 48.2 °F 77% 30.07 in 10.0 mi NNW 5.8 mph - N/A   Clear
1:54 AM 53.6 °F 48.2 °F 82% 30.07 in 10.0 mi NNW 4.6 mph - N/A   Scattered Clouds
2:14 AM 51.8 °F 46.4 °F 82% 30.07 in 10.0 mi NNW 3.5 mph - N/A   Clear
2:34 AM 51.8 °F 48.2 °F 88% 30.07 in 10.0 mi Calm Calm - N/A   Mostly Cloudy
2:54 AM 51.8 °F 48.2 °F 88% 30.07 in 10.0 mi Calm Calm - N/A   Overcast
3:14 AM 53.6 °F 48.2 °F 82% 30.07 in 10.0 mi North 5.8 mph - N/A   Overcast
3:34 AM 53.6 °F 46.4 °F 77% 30.06 in 10.0 mi North 5.8 mph - N/A   Scattered Clouds
3:54 AM 51.8 °F 46.4 °F 82% 30.07 in 10.0 mi North 4.6 mph - N/A   Scattered Clouds
4:14 AM 51.8 °F 46.4 °F 82% 30.06 in 10.0 mi Calm Calm - N/A   Clear
4:34 AM 51.8 °F 48.2 °F 88% 30.07 in 10.0 mi Calm Calm - N/A   Mostly Cloudy
4:54 AM 51.8 °F 46.4 °F 82% 30.07 in 10.0 mi Calm Calm - N/A   Scattered Clouds
5:14 AM 51.8 °F 48.2 °F 88% 30.07 in 10.0 mi West 3.5 mph - N/A   Scattered Clouds
5:34 AM 51.8 °F 48.2 °F 88% 30.07 in 10.0 mi West 4.6 mph - N/A   Mostly Cloudy
5:54 AM 51.8 °F 50.0 °F 94% 30.08 in 10.0 mi West 5.8 mph - N/A   Mostly Cloudy
6:14 AM 51.8 °F 48.2 °F 88% 30.08 in 10.0 mi WNW 8.1 mph - N/A   Mostly Cloudy
6:34 AM 50.0 °F 48.2 °F 94% 30.08 in 10.0 mi WNW 6.9 mph - N/A   Scattered Clouds
6:54 AM 50.0 °F 48.2 °F 94% 30.08 in 10.0 mi WNW 8.1 mph - N/A   Clear
7:14 AM 51.8 °F 48.2 °F 88% 30.07 in 10.0 mi WNW 8.1 mph - N/A   Scattered Clouds
7:34 AM 51.8 °F 48.2 °F 88% 30.07 in 10.0 mi NW 8.1 mph - N/A   Mostly Cloudy
7:54 AM 51.8 °F 50.0 °F 94% 30.07 in 10.0 mi NW 10.4 mph - N/A   Overcast
8:14 AM 53.6 °F 50.0 °F 88% 30.07 in 7.0 mi NW 11.5 mph - N/A   Overcast
8:34 AM 53.6 °F 50.0 °F 88% 30.07 in 10.0 mi NW 9.2 mph - N/A   Overcast
8:54 AM 55.4 °F 48.2 °F 77% 30.07 in 10.0 mi NW 10.4 mph - N/A   Overcast
9:14 AM 55.4 °F 48.2 °F 77% 30.07 in 10.0 mi NW 12.7 mph - N/A   Scattered Clouds
9:34 AM 55.4 °F 48.2 °F 77% 30.06 in 10.0 mi NW 11.5 mph - N/A   Scattered Clouds
9:54 AM 59.0 °F 48.2 °F 67% 30.05 in 10.0 mi NW 12.7 mph 19.6 mph N/A   Scattered Clouds
10:14 AM 57.2 °F 46.4 °F 67% 30.05 in 10.0 mi NW 16.1 mph 19.6 mph N/A   Mostly Cloudy
10:34 AM 60.8 °F 46.4 °F 59% 30.05 in 10.0 mi NW 17.3 mph 24.2 mph N/A   Scattered Clouds
10:54 AM 60.8 °F 46.4 °F 59% 30.04 in 10.0 mi NW 17.3 mph 24.2 mph N/A   Scattered Clouds
11:14 AM 62.6 °F 46.4 °F 55% 30.03 in 10.0 mi NNW 17.3 mph 24.2 mph N/A   Scattered Clouds
11:34 AM 62.6 °F 46.4 °F 55% 30.03 in 10.0 mi NW 18.4 mph - N/A   Scattered Clouds
11:54 AM 62.6 °F 46.4 °F 55% 30.02 in 10.0 mi NW 18.4 mph 32.2 mph N/A   Mostly Cloudy
12:14 PM 62.6 °F 44.6 °F 52% 30.02 in 10.0 mi NW 21.9 mph 27.6 mph N/A   Mostly Cloudy
12:34 PM 64.4 °F 46.4 °F 52% 30.01 in 10.0 mi NW 18.4 mph 26.5 mph N/A   Scattered Clouds
12:54 PM 62.6 °F 44.6 °F 52% 30.01 in 10.0 mi NW 15.0 mph 19.6 mph N/A   Mostly Cloudy
1:14 PM 60.8 °F 46.4 °F 59% 30.01 in 10.0 mi North 17.3 mph 26.5 mph N/A   Overcast
1:34 PM 59.0 °F 48.2 °F 67% 30.02 in 10.0 mi NNW 15.0 mph - N/A   Mostly Cloudy
1:54 PM 59.0 °F 48.2 °F 67% 30.02 in 10.0 mi NNW 11.5 mph 20.7 mph N/A   Overcast
2:14 PM 59.0 °F 48.2 °F 67% 30.02 in 10.0 mi NNW 11.5 mph - N/A   Overcast
2:34 PM 57.2 °F 48.2 °F 72% 30.02 in 10.0 mi North 12.7 mph - N/A   Light Drizzle
2:54 PM 59.0 °F 46.4 °F 63% 30.02 in 10.0 mi NNW 10.4 mph - N/A   Overcast
3:14 PM 59.0 °F 46.4 °F 63% 30.02 in 10.0 mi NNW 9.2 mph - N/A   Overcast
3:34 PM 60.8 °F 46.4 °F 59% 30.01 in 10.0 mi NW 8.1 mph - N/A   Mostly Cloudy
3:54 PM 62.6 °F 46.4 °F 55% 30.00 in 10.0 mi NW 10.4 mph - N/A   Mostly Cloudy
4:14 PM 60.8 °F 46.4 °F 59% 29.99 in 10.0 mi NNW 5.8 mph - N/A   Mostly Cloudy
4:34 PM 60.8 °F 46.4 °F 59% 29.99 in 10.0 mi NNW 5.8 mph - N/A   Overcast
4:54 PM 60.8 °F 46.4 °F 59% 29.99 in 10.0 mi NNW 5.8 mph - N/A   Overcast
5:14 PM 60.8 °F 46.4 °F 59% 29.99 in 10.0 mi North 10.4 mph - N/A   Overcast
5:34 PM 60.8 °F 46.4 °F 59% 29.99 in 10.0 mi NNW 4.6 mph - N/A   Overcast
5:54 PM 60.8 °F 46.4 °F 59% 29.98 in 10.0 mi NNW 4.6 mph - N/A   Overcast
6:14 PM 60.8 °F 46.4 °F 59% 29.98 in 10.0 mi Calm Calm - N/A   Overcast
6:34 PM 59.0 °F 50.0 °F 72% 29.97 in 10.0 mi Calm Calm - N/A   Overcast
6:54 PM 60.8 °F 50.0 °F 68% 29.96 in 10.0 mi SW 3.5 mph - N/A   Overcast
7:14 PM 59.0 °F 51.8 °F 77% 29.96 in 10.0 mi Calm Calm - N/A   Overcast
7:34 PM 60.8 °F 51.8 °F 72% 29.95 in 10.0 mi Calm Calm - N/A   Overcast
7:54 PM 59.0 °F 51.8 °F 77% 29.96 in 10.0 mi NNW 4.6 mph - N/A Rain Light Rain
8:14 PM 59.0 °F 51.8 °F 77% 29.96 in 10.0 mi NNW 4.6 mph - N/A   Overcast
8:34 PM 59.0 °F 51.8 °F 77% 29.96 in 10.0 mi North 5.8 mph - N/A   Light Drizzle
8:54 PM 57.2 °F 53.6 °F 88% 29.96 in 10.0 mi NW 5.8 mph - N/A Rain Rain
9:14 PM 57.2 °F 51.8 °F 82% 29.97 in 10.0 mi NW 12.7 mph 17.3 mph N/A Rain Light Rain
9:34 PM 57.2 °F 50.0 °F 77% 29.97 in 10.0 mi NW 11.5 mph - N/A Rain Light Rain
9:54 PM 57.2 °F 51.8 °F 82% 29.96 in 10.0 mi WNW 6.9 mph - N/A Rain Light Rain
10:14 PM 57.2 °F 51.8 °F 82% 29.96 in 10.0 mi West 4.6 mph - N/A   Overcast
10:34 PM 57.2 °F 51.8 °F 82% 29.96 in 10.0 mi West 5.8 mph - N/A   Overcast
10:54 PM 57.2 °F 51.8 °F 82% 29.97 in 10.0 mi NW 6.9 mph - N/A   Overcast
11:14 PM 57.2 °F 51.8 °F 82% 29.97 in 10.0 mi North 6.9 mph - N/A   Overcast
11:34 PM 57.2 °F 51.8 °F 82% 29.97 in 10.0 mi North 8.1 mph - N/A   Overcast
11:54 PM 55.4 °F 51.8 °F 88% 29.98 in 10.0 mi NNW 8.1 mph - N/A   Overcast